EW2958 Weather Reports


Display with metric or nautical units.
time (UTC)temp
F
wind
direction
speed
MPH
gust
MPH
rain 1hr
in
rain 24hr
in
rain mn
in
humidity
%
barometer
mb
20260506211539 41 276 7.0 13.0 0.00 0.07 0.06 91 1020.3
20260506210050 41 257 3.0 18.0 0.00 0.07 0.06 91 1020.4
20260506204535 40 271 10.0 19.0 0.00 0.07 0.06 91 1019.5
20260506203036 40 302 9.0 18.0 0.00 0.07 0.06 91 1019.3
20260506201530 40 250 10.0 17.0 0.00 0.07 0.06 91 1019.4
20260506200031 40 237 9.0 14.0 0.00 0.07 0.06 91 1019.2
20260506194528 40 273 8.0 17.0 0.01 0.07 0.06 90 1018.9
20260506193033 40 273 10.0 20.0 0.03 0.07 0.06 90 1018.8
20260506191524 40 269 8.0 15.0 0.04 0.07 0.06 90 1019.0
20260506190024 40 264 9.0 15.0 0.05 0.07 0.06 90 1019.0
20260506184531 40 262 9.0 23.0 0.04 0.06 0.06 89 1019.3
20260506183017 41 246 9.0 18.0 0.02 0.04 0.03 88 1019.1
20260506181514 42 257 5.0 14.0 0.01 0.03 0.02 80 1019.1
20260506180011 43 245 6.0 17.0 0.00 0.02 0.02 77 1018.7
20260506174510 43 269 8.0 16.0 0.00 0.02 0.02 77 1018.3
20260506173008 42 285 10.0 19.0 0.00 0.02 0.02 77 1017.8
20260506171506 42 283 9.0 18.0 0.00 0.02 0.02 79 1018.0
20260506170004 43 283 10.0 17.0 0.00 0.02 0.02 77 1018.5
20260506164513 43 279 10.0 22.0 0.00 0.02 0.02 77 1018.5
20260506163006 43 252 10.0 20.0 0.01 0.02 0.02 77 1018.5
20260506161600 43 254 10.0 20.0 0.01 0.02 0.02 76 1018.6
20260506160127 43 260 14.0 29.0 0.01 0.02 0.02 75 1018.4
20260506154557 43 265 9.0 21.0 0.01 0.02 0.02 79 1018.5
20260506153055 42 263 7.0 12.0 0.00 0.02 0.01 82 1018.2
20260506151555 42 255 7.0 12.0 0.00 0.02 0.01 82 1018.6
20260506144550 44 275 7.0 17.0 0.01 0.02 0.01 75 1018.2
20260506143049 43 248 8.0 20.0 0.01 0.02 0.01 80 1018.3
20260506141547 43 255 5.0 16.0 0.01 0.02 0.01 82 1018.5
20260506140043 44 251 5.0 17.0 0.00 0.01 0.00 79 1018.5
20260506134539 45 253 4.0 12.0 0.00 0.01 0.00 76 1018.1
20260506133049 44 262 5.0 19.0 0.00 0.01 0.00 75 1017.9
20260506131533 45 255 7.0 15.0 0.00 0.01 0.00 73 1017.5
20260506130030 45 265 13.0 26.0 0.00 0.01 0.00 73 1017.4
20260506124529 45 259 14.0 26.0 0.00 0.01 0.01 75 1017.1
20260506123029 45 272 13.0 26.0 0.00 0.01 0.01 77 1017.1
20260506121525 45 266 14.0 25.0 0.00 0.01 0.01 76 1017.3
20260506120046 46 274 11.0 21.0 0.00 0.01 0.01 74 1017.5
20260506114520 48 257 14.0 27.0 0.00 0.01 0.01 71 1017.7
20260506113018 48 257 11.0 21.0 0.00 0.01 0.01 78 1017.3
20260506111516 48 274 9.0 18.0 0.00 0.01 0.01 82 1017.0
20260506110015 47 285 12.0 20.0 0.01 0.01 0.01 90 1016.8
20260506104526 47 254 10.0 19.0 0.01 0.01 0.01 90 1016.7
20260506103030 47 280 9.0 18.0 0.01 0.01 0.01 90 1016.8
20260506101508 47 255 9.0 25.0 0.01 0.01 0.01 90 1016.7
20260506100005 48 283 11.0 21.0 0.00 0.00 0.00 90 1016.8
20260506094501 49 270 6.0 19.0 0.00 0.00 0.00 89 1016.6
20260506093100 50 279 9.0 24.0 0.00 0.00 0.00 83 1016.2
20260506091555 52 256 9.0 21.0 0.00 0.00 0.00 83 1015.9
20260506090054 52 257 8.0 17.0 0.00 0.00 0.00 79 1015.7
20260506084618 53 238 6.0 21.0 0.00 0.00 0.00 79 1015.6
20260506083050 54 265 12.0 25.0 0.00 0.00 0.00 78 1015.2
20260506081555 55 272 8.0 19.0 0.00 0.00 0.00 76 1014.8
20260506073047 58 295 8.0 19.0 0.00 0.00 0.00 77 1013.5
20260506071546 59 268 5.0 14.0 0.00 0.00 0.00 78 1013.4
20260506061540 59 301 7.0 21.0 0.00 0.00 0.00 78 1014.0
20260506044536 64 295 4.0 15.0 0.00 0.00 0.00 57 1014.0
20260506043028 64 262 9.0 16.0 0.00 0.00 0.00 56 1014.4
20260506041528 65 303 5.0 18.0 0.00 0.00 0.00 56 1014.5
20260506040025 64 274 7.0 19.0 0.00 0.00 0.00 57 1014.9
20260506034521 65 283 7.0 17.0 0.00 0.00 0.00 55 1015.0
20260506033016 65 258 6.0 17.0 0.00 0.00 0.00 57 1015.3
20260506031513 63 258 6.0 16.0 0.00 0.00 0.00 58 1015.4
20260506030010 63 250 8.0 20.0 0.00 0.00 0.00 58 1015.9
20260506024507 64 283 7.0 17.0 0.00 0.00 0.00 57 1016.3
20260506023005 64 299 5.0 14.0 0.00 0.00 0.00 58 1016.5
20260506021502 63 283 4.0 14.0 0.00 0.00 0.00 59 1016.9
20260506020100 64 277 6.0 16.0 0.00 0.00 0.00 57 1017.3
20260506014558 62 314 7.0 15.0 0.00 0.00 0.00 58 1017.5
20260506013107 63 285 8.0 18.0 0.00 0.00 0.00 57 1017.8
20260506011614 62 266 5.0 19.0 0.00 0.00 0.00 59 1018.0
20260506010056 62 312 3.0 16.0 0.00 0.00 0.00 60 1018.2
20260506004545 61 296 5.0 15.0 0.00 0.00 0.00 60 1018.3
20260506003043 60 292 7.0 16.0 0.00 0.00 0.00 61 1018.6
20260506001541 60 304 4.0 11.0 0.00 0.00 0.00 63 1018.8
20260506000036 59 265 3.0 15.0 0.00 0.00 0.00 63 1019.0
20260505234534 59 326 4.0 9.0 0.00 0.00 0.00 64 1019.2
20260505233035 58 330 3.0 10.0 0.00 0.00 0.00 64 1019.4
20260505231545 58 297 2.0 7.0 0.00 0.00 0.00 66 1019.6
20260505230028 58 289 2.0 6.0 0.00 0.00 0.00 66 1019.8
20260505224627 56 346 2.0 7.0 0.00 0.00 0.00 68 1019.8
20260505223023 56 322 1.0 6.0 0.00 0.00 0.00 69 1019.8
20260505221519 55 4 3.0 8.0 0.00 0.00 0.00 71 1019.8
20260505220019 54 319 1.0 7.0 0.00 0.00 0.00 73 1019.8
20260505214514 53 325 1.0 6.0 0.00 0.00 0.00 74 1019.7
20260505213016 53 310 1.0 6.0 0.00 0.00 0.00 74 1019.8